EW6480 Weather Reports


time (UTC)temp
C
wind
direction
speed
KPH
gust
KPH
rain 1hr
cm
rain 24hr
cm
rain mn
cm
humidity
%
barometer
mb
20260505041515 13 169 3.2 9.7 0.00 0.00 0.00 64 1011.0
20260505040012 13 263 3.2 9.7 0.00 0.00 0.00 62 1011.0
20260505034511 14 281 3.2 11.3 0.00 0.00 0.00 61 1010.8
20260505033010 14 153 3.2 17.7 0.00 0.00 0.00 60 1010.9
20260505031512 14 236 1.6 12.9 0.00 0.00 0.00 58 1010.8
20260505030009 15 294 4.8 12.9 0.00 0.00 0.00 57 1010.8
20260505024510 15 198 4.8 14.5 0.00 0.00 0.00 56 1010.9
20260505023008 15 265 3.2 16.1 0.00 0.00 0.00 54 1011.0
20260505021507 15 227 1.6 12.9 0.00 0.00 0.00 53 1010.9
20260505020011 16 195 3.2 17.7 0.00 0.00 0.00 51 1010.9
20260505014506 16 215 4.8 14.5 0.00 0.00 0.00 50 1010.8
20260505013005 16 200 3.2 14.5 0.00 0.00 0.00 49 1010.6
20260505011505 16 240 1.6 9.7 0.00 0.00 0.00 48 1010.4
20260505010012 17 238 1.6 17.7 0.00 0.00 0.00 47 1010.2
20260505004504 17 197 4.8 11.3 0.00 0.00 0.00 46 1009.9
20260505003003 17 225 3.2 11.3 0.00 0.00 0.00 46 1009.4
20260505001503 17 184 0.0 16.1 0.00 0.00 0.00 45 1008.9
20260505000002 18 274 6.4 16.1 0.00 0.00 0.00 44 1008.6
20260504234502 18 215 6.4 17.7 0.00 0.00 0.00 43 1008.4
20260504233002 19 204 4.8 22.5 0.00 0.00 0.00 42 1008.3
20260504231603 20 240 4.8 27.4 0.00 0.00 0.00 40 1007.9
20260504230100 20 164 4.8 27.4 0.00 0.00 0.00 38 1007.5
20260504224559 21 243 6.4 20.9 0.00 0.00 0.00 36 1007.2
20260504223058 21 216 8.0 17.7 0.00 0.00 0.00 35 1007.0
20260504221558 22 250 8.0 24.1 0.00 0.00 0.00 30 1006.9
20260504220056 22 300 4.8 19.3 0.00 0.00 0.00 30 1006.9
20260504214605 22 233 9.7 19.3 0.00 0.00 0.00 29 1007.0
20260504213055 23 241 4.8 17.7 0.00 0.00 0.00 28 1006.9
20260504211553 23 210 9.7 22.5 0.00 0.00 0.00 28 1006.8
20260504210058 22 288 8.0 22.5 0.00 0.00 0.00 28 1006.9
20260504204554 22 207 8.0 17.7 0.00 0.00 0.00 28 1006.8
20260504203056 22 202 14.5 27.4 0.00 0.00 0.00 28 1006.9
20260504201549 22 293 11.3 20.9 0.00 0.00 0.00 27 1007.0
20260504200048 22 245 6.4 19.3 0.00 0.00 0.00 27 1007.1
20260504194550 22 271 8.0 19.3 0.00 0.00 0.00 27 1007.2
20260504193044 22 219 9.7 20.9 0.00 0.00 0.00 27 1007.1
20260504191551 22 180 8.0 20.9 0.00 0.00 0.00 27 1007.2
20260504190041 21 288 9.7 30.6 0.00 0.00 0.00 27 1007.5
20260504184539 21 275 11.3 27.4 0.00 0.00 0.00 26 1007.6
20260504183038 21 208 12.9 29.0 0.00 0.00 0.00 27 1007.5
20260504181535 21 168 8.0 27.4 0.00 0.00 0.00 28 1007.5
20260504180033 21 192 8.0 24.1 0.00 0.00 0.00 29 1007.9
20260504174530 20 310 9.7 33.8 0.00 0.00 0.00 29 1008.0
20260504173028 20 259 11.3 32.2 0.00 0.00 0.00 29 1008.2
20260504171539 20 165 12.9 29.0 0.00 0.00 0.00 30 1008.2
20260504100104 7 236 0.0 1.6 0.00 0.00 0.00 63 1011.2
20260504090108 7 225 0.0 3.2 0.00 0.00 0.00 61 1011.1
20260504081553 7 200 0.0 1.6 0.00 0.00 0.00 61 1011.0